Keller Affenhaus Messungen

Zurück zum Überblick

Zeitpunkt Temperatur Luftfeuchte
28.05.2020 19:10:18 18,1 C 56,0%
28.05.2020 19:03:17 18,2 C 57,0%
28.05.2020 18:56:16 18,3 C 57,0%
28.05.2020 18:49:20 18,1 C 57,0%
28.05.2020 18:35:08 18,0 C 58,0%
28.05.2020 18:28:06 18,0 C 58,0%
28.05.2020 18:21:04 18,0 C 59,0%
28.05.2020 18:14:01 18,1 C 59,0%
28.05.2020 18:06:59 18,1 C 59,0%
28.05.2020 17:59:57 18,1 C 59,0%
28.05.2020 17:52:55 18,0 C 59,0%
28.05.2020 17:45:53 18,0 C 59,0%
28.05.2020 17:38:52 18,1 C 59,0%
28.05.2020 17:31:51 18,1 C 59,0%
28.05.2020 17:24:49 18,1 C 59,0%
28.05.2020 17:17:49 18,1 C 60,0%
28.05.2020 17:10:47 18,1 C 60,0%
28.05.2020 17:03:43 18,1 C 60,0%
28.05.2020 16:56:47 18,1 C 60,0%
28.05.2020 16:49:39 18,1 C 60,0%
28.05.2020 16:42:39 18,1 C 60,0%
28.05.2020 16:35:43 18,1 C 60,0%
28.05.2020 16:07:25 18,1 C 61,0%
28.05.2020 16:00:25 18,1 C 61,0%
28.05.2020 15:53:29 18,0 C 61,0%
28.05.2020 15:46:22 18,0 C 61,0%
28.05.2020 15:39:20 18,0 C 61,0%
28.05.2020 15:32:16 18,1 C 61,0%
28.05.2020 15:25:14 18,0 C 61,0%
28.05.2020 15:18:11 18,0 C 61,0%
28.05.2020 15:11:10 18,0 C 61,0%
28.05.2020 15:04:09 18,0 C 61,0%
28.05.2020 14:57:08 18,0 C 61,0%
28.05.2020 14:50:04 18,0 C 61,0%
28.05.2020 14:43:02 18,0 C 61,0%
28.05.2020 14:35:59 18,0 C 61,0%
28.05.2020 14:28:58 18,0 C 61,0%
28.05.2020 14:21:57 18,0 C 61,0%
28.05.2020 14:14:55 18,0 C 61,0%
28.05.2020 14:07:52 18,0 C 61,0%
28.05.2020 14:00:50 18,0 C 61,0%
28.05.2020 13:53:54 17,9 C 61,0%
28.05.2020 13:46:43 18,0 C 61,0%
28.05.2020 13:39:47 18,0 C 60,0%
28.05.2020 13:32:41 18,0 C 60,0%
28.05.2020 13:25:38 17,9 C 60,0%
28.05.2020 13:18:38 17,9 C 61,0%
28.05.2020 13:11:37 17,9 C 60,0%
28.05.2020 13:04:35 17,9 C 61,0%
28.05.2020 12:57:31 17,9 C 60,0%
28.05.2020 12:50:31 17,9 C 61,0%
28.05.2020 12:43:27 17,9 C 60,0%
28.05.2020 12:36:26 17,9 C 60,0%
28.05.2020 12:29:25 17,9 C 61,0%
28.05.2020 12:22:23 17,9 C 61,0%
28.05.2020 12:15:27 17,9 C 61,0%
28.05.2020 12:08:20 17,9 C 61,0%
28.05.2020 12:01:18 17,9 C 61,0%
28.05.2020 11:54:22 17,9 C 61,0%
28.05.2020 11:47:13 17,9 C 60,0%
28.05.2020 11:40:17 17,9 C 60,0%
28.05.2020 11:33:09 17,9 C 61,0%
28.05.2020 11:26:08 17,9 C 61,0%
28.05.2020 11:19:07 17,9 C 61,0%
28.05.2020 11:12:04 17,9 C 61,0%
28.05.2020 11:05:08 17,9 C 61,0%
28.05.2020 10:50:57 17,9 C 61,0%
28.05.2020 10:43:54 17,9 C 61,0%
28.05.2020 10:36:54 17,9 C 61,0%
28.05.2020 10:29:58 17,9 C 61,0%
28.05.2020 10:08:43 17,8 C 61,0%
28.05.2020 10:01:47 17,9 C 61,0%
28.05.2020 09:26:30 17,9 C 60,0%
28.05.2020 09:19:34 17,8 C 61,0%
28.05.2020 06:51:48 18,4 C 60,0%
28.05.2020 06:44:52 18,3 C 60,0%
28.05.2020 06:37:44 18,2 C 60,0%
28.05.2020 06:30:48 18,3 C 60,0%
28.05.2020 06:16:39 18,5 C 60,0%
28.05.2020 06:09:37 18,5 C 60,0%
28.05.2020 06:02:36 18,2 C 60,0%
28.05.2020 05:55:34 18,3 C 60,0%
28.05.2020 05:48:32 18,4 C 60,0%
28.05.2020 05:41:31 18,5 C 60,0%
28.05.2020 05:34:30 18,5 C 60,0%
28.05.2020 05:27:28 18,2 C 60,0%
28.05.2020 05:20:26 18,2 C 60,0%
28.05.2020 05:13:23 18,3 C 60,0%
28.05.2020 05:06:22 18,4 C 60,0%
28.05.2020 04:59:19 18,4 C 60,0%
28.05.2020 04:52:17 18,5 C 60,0%
28.05.2020 04:45:17 18,2 C 60,0%
28.05.2020 04:38:14 18,2 C 60,0%
28.05.2020 04:31:12 18,3 C 60,0%
28.05.2020 04:24:09 18,4 C 60,0%
28.05.2020 04:17:07 18,5 C 60,0%
28.05.2020 04:10:06 18,4 C 60,0%
28.05.2020 04:03:04 18,2 C 59,0%
28.05.2020 03:56:03 18,3 C 59,0%
28.05.2020 03:49:07 18,3 C 59,0%
28.05.2020 03:42:00 18,4 C 59,0%
28.05.2020 03:35:04 18,5 C 59,0%